Time,TemperatureF,DewpointF,PressureIn,WindDirection,WindDirectionDegrees,WindSpeedMPH,WindSpeedGustMPH,Humidity,HourlyPrecipIn,Conditions,Clouds,dailyrainin,SoftwareType,DateUTC
2013-06-14 00:03:00,53.9,50.0,29.76,WSW,247,4.9,8.2,85,0.00,,,0.00,Rainwise IP-100,2013-06-14 07:03:00,
2013-06-14 00:08:00,53.9,49.0,29.76,SW,225,7.2,8.2,84,0.00,,,0.00,Rainwise IP-100,2013-06-14 07:08:00,
2013-06-14 00:13:00,53.9,49.0,29.75,WSW,247,5.6,7.7,84,0.00,,,0.00,Rainwise IP-100,2013-06-14 07:13:00,
2013-06-14 00:18:00,53.9,49.0,29.76,WSW,247,2.1,6.8,84,0.00,,,0.00,Rainwise IP-100,2013-06-14 07:18:00,
2013-06-14 00:23:00,53.9,50.0,29.76,SSW,202,4.9,7.2,85,0.00,,,0.00,Rainwise IP-100,2013-06-14 07:23:00,
2013-06-14 00:24:00,53.9,50.0,29.76,WSW,247,1.9,7.9,85,0.00,,,0.00,Rainwise IP-100,2013-06-14 07:24:00,
2013-06-14 00:29:00,53.8,50.0,29.75,WSW,247,5.1,7.5,85,0.00,,,0.00,Rainwise IP-100,2013-06-14 07:29:00,
2013-06-14 00:34:00,53.8,50.0,29.75,West,270,5.1,8.2,85,0.00,,,0.00,Rainwise IP-100,2013-06-14 07:34:00,
2013-06-14 00:39:00,53.9,50.0,29.75,WSW,247,2.8,8.4,85,0.00,,,0.00,Rainwise IP-100,2013-06-14 07:39:00,
2013-06-14 00:44:00,53.9,50.0,29.75,SW,225,2.8,5.6,85,0.00,,,0.00,Rainwise IP-100,2013-06-14 07:44:00,
2013-06-14 00:49:00,53.9,50.0,29.75,SW,225,6.1,6.1,85,0.00,,,0.00,Rainwise IP-100,2013-06-14 07:49:00,
2013-06-14 00:54:00,53.8,50.0,29.75,WSW,247,3.0,6.5,85,0.00,,,0.00,Rainwise IP-100,2013-06-14 07:54:00,
2013-06-14 00:59:00,53.6,49.0,29.75,SSW,202,2.1,8.2,85,0.00,,,0.00,Rainwise IP-100,2013-06-14 07:59:00,
2013-06-14 01:04:00,53.5,49.0,29.75,SW,225,3.0,5.8,85,0.00,,,0.00,Rainwise IP-100,2013-06-14 08:04:00,
2013-06-14 01:09:00,53.5,49.0,29.74,SW,225,4.9,8.2,86,0.00,,,0.00,Rainwise IP-100,2013-06-14 08:09:00,
2013-06-14 01:14:00,53.3,49.0,29.74,SW,225,4.4,7.0,86,0.00,,,0.00,Rainwise IP-100,2013-06-14 08:14:00,
2013-06-14 01:19:00,53.2,48.0,29.74,WSW,247,3.5,5.6,86,0.00,,,0.00,Rainwise IP-100,2013-06-14 08:19:00,
2013-06-14 01:24:00,53.2,49.0,29.74,SW,225,1.6,4.7,87,0.00,,,0.00,Rainwise IP-100,2013-06-14 08:24:00,
2013-06-14 01:29:00,53.1,49.0,29.74,SW,225,2.1,2.1,87,0.00,,,0.00,Rainwise IP-100,2013-06-14 08:29:00,
2013-06-14 01:34:00,53.0,49.0,29.74,SSW,202,3.0,4.0,87,0.00,,,0.00,Rainwise IP-100,2013-06-14 08:34:00,
2013-06-14 01:39:00,52.9,49.0,29.73,WSW,247,4.2,6.1,87,0.00,,,0.00,Rainwise IP-100,2013-06-14 08:39:00,
2013-06-14 01:44:00,52.9,49.0,29.73,SW,225,2.3,8.2,87,0.00,,,0.00,Rainwise IP-100,2013-06-14 08:44:00,
2013-06-14 01:49:00,53.1,48.0,29.73,WSW,247,2.3,5.8,86,0.00,,,0.00,Rainwise IP-100,2013-06-14 08:49:00,
2013-06-14 01:54:00,53.3,49.0,29.73,South,180,0.0,4.0,86,0.00,,,0.00,Rainwise IP-100,2013-06-14 08:54:00,
2013-06-14 01:59:00,53.3,49.0,29.73,WSW,247,1.9,2.8,85,0.00,,,0.00,Rainwise IP-100,2013-06-14 08:59:00,
2013-06-14 02:04:00,53.1,48.0,29.73,WSW,247,2.3,4.9,85,0.00,,,0.00,Rainwise IP-100,2013-06-14 09:04:00,
2013-06-14 02:09:00,52.9,48.0,29.72,SSW,202,4.2,4.2,86,0.00,,,0.00,Rainwise IP-100,2013-06-14 09:09:00,
2013-06-14 02:14:00,52.7,48.0,29.73,SW,225,3.0,4.9,86,0.00,,,0.00,Rainwise IP-100,2013-06-14 09:14:00,
2013-06-14 02:19:00,52.6,49.0,29.72,SW,225,3.3,4.0,87,0.00,,,0.00,Rainwise IP-100,2013-06-14 09:19:00,
2013-06-14 02:24:00,52.5,49.0,29.72,SSW,202,0.0,4.0,87,0.00,,,0.00,Rainwise IP-100,2013-06-14 09:24:00,
2013-06-14 02:29:00,52.3,48.0,29.72,SW,225,0.0,3.0,87,0.00,,,0.00,Rainwise IP-100,2013-06-14 09:29:00,
2013-06-14 02:34:00,52.1,48.0,29.72,SW,225,0.0,0.0,88,0.00,,,0.00,Rainwise IP-100,2013-06-14 09:34:00,
2013-06-14 02:39:00,51.8,48.0,29.73,North,360,0.0,2.3,88,0.00,,,0.00,Rainwise IP-100,2013-06-14 09:39:00,
2013-06-14 02:44:00,51.6,49.0,29.73,North,360,1.2,1.6,89,0.00,,,0.00,Rainwise IP-100,2013-06-14 09:44:00,
2013-06-14 02:49:00,51.3,48.0,29.73,North,360,0.0,1.4,89,0.00,,,0.00,Rainwise IP-100,2013-06-14 09:49:00,
2013-06-14 02:54:00,51.0,48.0,29.72,North,360,0.0,0.0,90,0.00,,,0.00,Rainwise IP-100,2013-06-14 09:54:00,
2013-06-14 02:59:00,51.0,48.0,29.72,SSW,202,1.9,3.7,90,0.00,,,0.00,Rainwise IP-100,2013-06-14 09:59:00,
2013-06-14 03:04:00,51.2,48.0,29.71,SW,225,1.4,4.7,90,0.00,,,0.00,Rainwise IP-100,2013-06-14 10:04:00,
2013-06-14 03:09:00,51.5,49.0,29.71,WSW,247,0.0,2.6,90,0.00,,,0.00,Rainwise IP-100,2013-06-14 10:09:00,
2013-06-14 03:14:00,51.3,49.0,29.71,West,270,0.0,0.0,91,0.00,,,0.00,Rainwise IP-100,2013-06-14 10:14:00,
2013-06-14 03:19:00,51.0,49.0,29.71,NW,315,0.0,0.0,91,0.00,,,0.00,Rainwise IP-100,2013-06-14 10:19:00,
2013-06-14 03:24:00,50.8,49.0,29.71,NW,315,0.0,0.0,91,0.00,,,0.00,Rainwise IP-100,2013-06-14 10:24:00,
2013-06-14 03:29:00,50.5,48.0,29.71,NW,315,0.0,0.0,91,0.00,,,0.00,Rainwise IP-100,2013-06-14 10:29:00,
2013-06-14 03:34:00,50.4,48.0,29.70,NW,315,0.0,0.0,91,0.00,,,0.00,Rainwise IP-100,2013-06-14 10:34:00,
2013-06-14 03:39:00,50.3,48.0,29.70,NW,315,0.0,0.0,91,0.00,,,0.00,Rainwise IP-100,2013-06-14 10:39:00,
2013-06-14 03:44:00,50.3,48.0,29.70,NW,315,0.0,0.0,92,0.00,,,0.00,Rainwise IP-100,2013-06-14 10:44:00,
2013-06-14 03:49:00,50.2,47.5,29.70,NW,315,0.0,0.0,92,0.00,,,0.00,Rainwise IP-100,2013-06-14 10:49:00,
2013-06-14 03:54:00,49.9,47.5,29.70,NW,315,0.0,0.0,92,0.00,,,0.00,Rainwise IP-100,2013-06-14 10:54:00,
2013-06-14 03:59:00,49.9,47.5,29.70,NW,315,0.0,0.0,92,0.00,,,0.00,Rainwise IP-100,2013-06-14 10:59:00,
2013-06-14 04:04:00,50.2,47.5,29.69,SSW,202,2.3,3.0,93,0.00,,,0.00,Rainwise IP-100,2013-06-14 11:04:00,
2013-06-14 04:09:00,50.3,48.0,29.70,SSW,202,1.4,2.6,93,0.00,,,0.00,Rainwise IP-100,2013-06-14 11:09:00,
2013-06-14 04:14:00,50.5,48.0,29.69,SSW,202,0.0,2.1,93,0.00,,,0.00,Rainwise IP-100,2013-06-14 11:14:00,
2013-06-14 04:19:00,50.7,48.0,29.70,SSW,202,0.0,0.0,93,0.00,,,0.00,Rainwise IP-100,2013-06-14 11:19:00,
2013-06-14 04:24:00,50.7,48.0,29.69,WSW,247,1.4,3.7,93,0.00,,,0.00,Rainwise IP-100,2013-06-14 11:24:00,
2013-06-14 04:29:00,50.9,49.0,29.69,SW,225,0.0,3.3,93,0.00,,,0.00,Rainwise IP-100,2013-06-14 11:29:00,
2013-06-14 04:34:00,51.0,49.0,29.70,WSW,247,0.0,2.8,93,0.00,,,0.00,Rainwise IP-100,2013-06-14 11:34:00,
2013-06-14 04:39:00,51.0,49.0,29.69,WSW,247,1.2,2.1,93,0.00,,,0.00,Rainwise IP-100,2013-06-14 11:39:00,
2013-06-14 04:44:00,50.9,49.0,29.70,WSW,247,0.0,1.9,93,0.00,,,0.00,Rainwise IP-100,2013-06-14 11:44:00,
2013-06-14 04:49:00,50.8,49.0,29.70,WSW,247,1.2,1.2,93,0.00,,,0.00,Rainwise IP-100,2013-06-14 11:49:00,
2013-06-14 04:54:00,50.8,49.0,29.70,WSW,247,1.9,1.9,93,0.00,,,0.00,Rainwise IP-100,2013-06-14 11:54:00,
2013-06-14 04:59:00,50.9,49.0,29.69,WSW,247,0.0,2.6,93,0.00,,,0.00,Rainwise IP-100,2013-06-14 11:59:00,
2013-06-14 05:04:00,50.8,49.0,29.70,WSW,247,1.2,2.1,93,0.00,,,0.00,Rainwise IP-100,2013-06-14 12:04:00,
2013-06-14 05:09:00,50.8,49.0,29.70,WSW,247,0.0,2.3,93,0.00,,,0.00,Rainwise IP-100,2013-06-14 12:09:00,
2013-06-14 05:14:00,50.7,48.0,29.70,SSW,202,1.4,2.3,93,0.00,,,0.00,Rainwise IP-100,2013-06-14 12:14:00,
2013-06-14 05:17:00,50.6,48.0,29.70,SSW,202,2.3,2.3,93,0.00,,,0.00,Rainwise IP-100,2013-06-14 12:17:00,
2013-06-14 05:22:00,50.6,48.0,29.70,SW,225,2.3,3.5,93,0.00,,,0.00,Rainwise IP-100,2013-06-14 12:22:00,
2013-06-14 05:27:00,50.8,49.0,29.69,SW,225,0.0,3.0,93,0.00,,,0.00,Rainwise IP-100,2013-06-14 12:27:00,
2013-06-14 05:32:00,50.9,49.0,29.70,SW,225,1.2,2.6,93,0.00,,,0.00,Rainwise IP-100,2013-06-14 12:32:00,
2013-06-14 05:37:00,51.0,49.0,29.69,WSW,247,0.0,2.8,93,0.00,,,0.00,Rainwise IP-100,2013-06-14 12:37:00,
2013-06-14 05:42:00,50.9,49.0,29.70,SW,225,1.9,2.6,93,0.00,,,0.00,Rainwise IP-100,2013-06-14 12:42:00,
2013-06-14 05:47:00,50.9,49.0,29.70,SW,225,1.6,3.3,92,0.00,,,0.00,Rainwise IP-100,2013-06-14 12:47:00,
2013-06-14 05:52:00,50.9,49.0,29.70,SW,225,0.0,2.1,92,0.00,,,0.00,Rainwise IP-100,2013-06-14 12:52:00,
2013-06-14 05:57:00,50.7,48.0,29.70,SW,225,0.0,2.3,93,0.00,,,0.00,Rainwise IP-100,2013-06-14 12:57:00,
2013-06-14 06:02:00,50.7,48.0,29.70,SW,225,0.0,1.6,93,0.00,,,0.00,Rainwise IP-100,2013-06-14 13:02:00,
2013-06-14 06:07:00,50.6,48.0,29.70,SW,225,0.0,0.0,93,0.00,,,0.00,Rainwise IP-100,2013-06-14 13:07:00,
2013-06-14 06:12:00,50.6,48.0,29.70,SW,225,0.0,0.0,93,0.00,,,0.00,Rainwise IP-100,2013-06-14 13:12:00,
2013-06-14 06:17:00,50.8,49.0,29.70,SW,225,0.0,0.0,93,0.00,,,0.00,Rainwise IP-100,2013-06-14 13:17:00,
2013-06-14 06:22:00,50.9,49.0,29.70,SW,225,0.0,0.0,93,0.00,,,0.00,Rainwise IP-100,2013-06-14 13:22:00,
2013-06-14 06:27:00,51.0,49.0,29.70,SW,225,0.0,0.0,93,0.00,,,0.00,Rainwise IP-100,2013-06-14 13:27:00,
2013-06-14 06:32:00,51.3,49.0,29.70,SW,225,0.0,0.0,93,0.00,,,0.00,Rainwise IP-100,2013-06-14 13:32:00,
2013-06-14 06:37:00,51.6,50.0,29.70,SW,225,0.0,0.0,92,0.00,,,0.00,Rainwise IP-100,2013-06-14 13:37:00,
2013-06-14 06:42:00,51.8,50.0,29.70,SW,225,0.0,0.0,92,0.00,,,0.00,Rainwise IP-100,2013-06-14 13:42:00,
2013-06-14 06:47:00,52.0,50.0,29.70,SSW,202,0.0,0.0,92,0.00,,,0.00,Rainwise IP-100,2013-06-14 13:47:00,
2013-06-14 06:52:00,52.4,50.0,29.70,SSW,202,0.0,1.2,92,0.00,,,0.00,Rainwise IP-100,2013-06-14 13:52:00,
2013-06-14 06:57:00,52.9,50.5,29.70,SSW,202,0.0,0.0,92,0.00,,,0.00,Rainwise IP-100,2013-06-14 13:57:00,
2013-06-14 07:02:00,53.6,50.5,29.70,SSW,202,0.0,0.0,91,0.00,,,0.00,Rainwise IP-100,2013-06-14 14:02:00,
2013-06-14 07:07:00,54.3,52.0,29.70,SSW,202,0.0,0.0,90,0.00,,,0.00,Rainwise IP-100,2013-06-14 14:07:00,
2013-06-14 07:12:00,55.0,53.0,29.70,SSW,202,0.0,0.0,90,0.00,,,0.00,Rainwise IP-100,2013-06-14 14:12:00,
2013-06-14 07:17:00,55.6,53.0,29.70,SSW,202,0.0,0.0,89,0.00,,,0.00,Rainwise IP-100,2013-06-14 14:17:00,
2013-06-14 07:22:00,56.1,52.0,29.70,SSW,202,0.0,0.0,87,0.00,,,0.00,Rainwise IP-100,2013-06-14 14:22:00,
2013-06-14 07:27:00,57.0,53.0,29.71,SSW,202,0.0,0.0,86,0.00,,,0.00,Rainwise IP-100,2013-06-14 14:27:00,
2013-06-14 07:32:00,57.7,53.0,29.70,WNW,292,1.9,0.0,84,0.00,,,0.00,Rainwise IP-100,2013-06-14 14:32:00,
2013-06-14 07:37:00,57.9,53.0,29.70,WNW,292,0.0,2.3,82,0.00,,,0.00,Rainwise IP-100,2013-06-14 14:37:00,
2013-06-14 07:42:00,58.4,53.0,29.70,WNW,292,0.0,1.6,81,0.00,,,0.00,Rainwise IP-100,2013-06-14 14:42:00,
2013-06-14 07:47:00,59.0,53.0,29.70,WNW,292,0.0,1.2,80,0.00,,,0.00,Rainwise IP-100,2013-06-14 14:47:00,
2013-06-14 07:52:00,60.2,53.5,29.71,WNW,292,0.0,1.4,79,0.00,,,0.00,Rainwise IP-100,2013-06-14 14:52:00,
2013-06-14 07:57:00,60.8,54.0,29.70,WNW,292,1.2,2.8,77,0.00,,,0.00,Rainwise IP-100,2013-06-14 14:57:00,
2013-06-14 08:02:00,61.0,53.5,29.70,WNW,292,0.0,1.6,76,0.00,,,0.00,Rainwise IP-100,2013-06-14 15:02:00,
2013-06-14 08:07:00,62.2,54.0,29.70,WNW,292,0.0,0.0,75,0.00,,,0.00,Rainwise IP-100,2013-06-14 15:07:00,
2013-06-14 08:12:00,63.3,54.0,29.70,WNW,292,0.0,0.0,72,0.00,,,0.00,Rainwise IP-100,2013-06-14 15:12:00,
2013-06-14 08:17:00,64.1,54.5,29.71,WNW,292,0.0,0.0,71,0.00,,,0.00,Rainwise IP-100,2013-06-14 15:17:00,
2013-06-14 08:22:00,64.9,54.5,29.70,WNW,292,0.0,1.2,69,0.00,,,0.00,Rainwise IP-100,2013-06-14 15:22:00,
2013-06-14 08:28:00,64.9,54.0,29.71,WNW,292,1.9,1.9,68,0.00,,,0.00,Rainwise IP-100,2013-06-14 15:28:00,
2013-06-14 08:33:00,64.7,53.5,29.70,WNW,292,1.4,1.9,67,0.00,,,0.00,Rainwise IP-100,2013-06-14 15:33:00,
2013-06-14 08:38:00,65.3,54.0,29.70,WNW,292,1.2,2.3,66,0.00,,,0.00,Rainwise IP-100,2013-06-14 15:38:00,
2013-06-14 08:43:00,65.6,53.5,29.70,WSW,247,0.0,3.5,65,0.00,,,0.00,Rainwise IP-100,2013-06-14 15:43:00,
2013-06-14 08:48:00,66.1,53.5,29.70,SW,225,1.9,5.1,64,0.00,,,0.00,Rainwise IP-100,2013-06-14 15:48:00,
2013-06-14 08:53:00,66.5,54.0,29.70,SSW,202,0.0,3.7,63,0.00,,,0.00,Rainwise IP-100,2013-06-14 15:53:00,
2013-06-14 08:58:00,66.2,53.0,29.70,WSW,247,1.2,4.0,62,0.00,,,0.00,Rainwise IP-100,2013-06-14 15:58:00,
2013-06-14 09:03:00,66.5,53.5,29.71,West,270,0.0,4.2,62,0.00,,,0.00,Rainwise IP-100,2013-06-14 16:03:00,
2013-06-14 09:08:00,66.7,53.5,29.70,WSW,247,2.6,4.9,62,0.00,,,0.00,Rainwise IP-100,2013-06-14 16:08:00,
2013-06-14 09:13:00,66.1,53.0,29.70,SW,225,2.6,5.4,62,0.00,,,0.00,Rainwise IP-100,2013-06-14 16:13:00,
2013-06-14 09:18:00,65.7,53.0,29.70,WSW,247,4.2,5.6,64,0.00,,,0.00,Rainwise IP-100,2013-06-14 16:18:00,
2013-06-14 09:23:00,65.9,53.5,29.70,SSW,202,4.0,6.1,64,0.00,,,0.00,Rainwise IP-100,2013-06-14 16:23:00,
2013-06-14 09:28:00,66.3,54.0,29.70,SSW,202,2.8,5.4,64,0.00,,,0.00,Rainwise IP-100,2013-06-14 16:28:00,
2013-06-14 09:33:00,66.4,53.5,29.70,WNW,292,3.5,6.5,63,0.00,,,0.00,Rainwise IP-100,2013-06-14 16:33:00,
2013-06-14 09:38:00,66.5,54.0,29.70,SW,225,0.0,8.2,63,0.00,,,0.00,Rainwise IP-100,2013-06-14 16:38:00,
2013-06-14 09:43:00,66.3,53.5,29.70,WSW,247,4.4,7.9,63,0.00,,,0.00,Rainwise IP-100,2013-06-14 16:43:00,
2013-06-14 09:48:00,65.4,53.0,29.70,SW,225,4.4,7.7,64,0.00,,,0.00,Rainwise IP-100,2013-06-14 16:48:00,
2013-06-14 09:53:00,64.9,53.0,29.70,WNW,292,4.2,7.0,64,0.00,,,0.00,Rainwise IP-100,2013-06-14 16:53:00,
2013-06-14 09:58:00,64.9,53.0,29.69,WSW,247,2.3,7.7,65,0.00,,,0.00,Rainwise IP-100,2013-06-14 16:58:00,
2013-06-14 10:03:00,65.1,53.0,29.70,WSW,247,2.3,7.9,64,0.00,,,0.00,Rainwise IP-100,2013-06-14 17:03:00,
2013-06-14 10:08:00,65.3,53.0,29.70,West,270,5.4,8.2,64,0.00,,,0.00,Rainwise IP-100,2013-06-14 17:08:00,
2013-06-14 10:13:00,65.3,53.0,29.70,WSW,247,5.8,8.9,64,0.00,,,0.00,Rainwise IP-100,2013-06-14 17:13:00,
2013-06-14 10:18:00,65.9,53.5,29.70,WSW,247,7.5,7.5,64,0.00,,,0.00,Rainwise IP-100,2013-06-14 17:18:00,
2013-06-14 10:23:00,66.5,54.0,29.70,SW,225,5.4,7.7,63,0.00,,,0.00,Rainwise IP-100,2013-06-14 17:23:00,
2013-06-14 10:28:00,66.9,54.0,29.70,WSW,247,5.1,7.7,62,0.00,,,0.00,Rainwise IP-100,2013-06-14 17:28:00,
2013-06-14 10:33:00,67.4,54.0,29.69,WSW,247,4.9,9.1,62,0.00,,,0.00,Rainwise IP-100,2013-06-14 17:33:00,
2013-06-14 10:38:00,67.7,53.5,29.69,WNW,292,4.2,9.8,61,0.00,,,0.00,Rainwise IP-100,2013-06-14 17:38:00,
2013-06-14 10:43:00,68.1,53.5,29.70,SSW,202,4.4,9.1,60,0.00,,,0.00,Rainwise IP-100,2013-06-14 17:43:00,
2013-06-14 10:48:00,68.2,53.5,29.69,WSW,247,6.1,9.8,60,0.00,,,0.00,Rainwise IP-100,2013-06-14 17:48:00,
2013-06-14 10:53:00,67.5,53.5,29.70,SSW,202,6.5,11.2,60,0.00,,,0.00,Rainwise IP-100,2013-06-14 17:53:00,
2013-06-14 10:58:00,66.3,53.0,29.70,West,270,6.8,10.0,61,0.00,,,0.00,Rainwise IP-100,2013-06-14 17:58:00,
2013-06-14 11:03:00,65.4,52.0,29.70,WNW,292,7.2,10.0,62,0.00,,,0.00,Rainwise IP-100,2013-06-14 18:03:00,
2013-06-14 11:08:00,64.9,52.0,29.70,WSW,247,4.9,11.0,63,0.00,,,0.00,Rainwise IP-100,2013-06-14 18:08:00,
2013-06-14 11:13:00,64.7,52.0,29.70,WSW,247,7.9,10.3,64,0.00,,,0.00,Rainwise IP-100,2013-06-14 18:13:00,
2013-06-14 11:18:00,64.5,52.0,29.70,West,270,7.0,10.7,64,0.00,,,0.00,Rainwise IP-100,2013-06-14 18:18:00,
2013-06-14 11:23:00,64.5,52.0,29.70,SSW,202,4.9,10.0,64,0.00,,,0.00,Rainwise IP-100,2013-06-14 18:23:00,
2013-06-14 11:28:00,64.5,52.0,29.70,SW,225,8.6,11.4,64,0.00,,,0.00,Rainwise IP-100,2013-06-14 18:28:00,
2013-06-14 11:33:00,64.2,51.0,29.70,WSW,247,9.8,10.7,64,0.00,,,0.00,Rainwise IP-100,2013-06-14 18:33:00,
2013-06-14 11:38:00,64.2,51.0,29.70,SW,225,7.2,13.1,64,0.00,,,0.00,Rainwise IP-100,2013-06-14 18:38:00,
2013-06-14 11:43:00,64.2,51.0,29.70,WNW,292,7.7,11.2,64,0.00,,,0.00,Rainwise IP-100,2013-06-14 18:43:00,
2013-06-14 11:48:00,64.5,52.0,29.70,WSW,247,8.2,11.9,64,0.00,,,0.00,Rainwise IP-100,2013-06-14 18:48:00,
2013-06-14 11:53:00,64.9,52.0,29.70,WNW,292,4.9,11.2,63,0.00,,,0.00,Rainwise IP-100,2013-06-14 18:53:00,
2013-06-14 11:58:00,65.0,51.0,29.70,WSW,247,10.0,13.3,62,0.00,,,0.00,Rainwise IP-100,2013-06-14 18:58:00,
2013-06-14 12:03:00,64.9,51.0,29.69,WSW,247,4.9,11.7,62,0.00,,,0.00,Rainwise IP-100,2013-06-14 19:03:00,
2013-06-14 12:08:00,64.9,51.0,29.70,SW,225,7.9,13.3,62,0.00,,,0.00,Rainwise IP-100,2013-06-14 19:08:00,
2013-06-14 12:13:00,65.2,52.0,29.70,SSW,202,6.5,11.7,63,0.00,,,0.00,Rainwise IP-100,2013-06-14 19:13:00,
2013-06-14 12:18:00,65.3,52.0,29.70,SW,225,6.1,12.6,62,0.00,,,0.00,Rainwise IP-100,2013-06-14 19:18:00,
2013-06-14 12:23:00,64.9,51.0,29.70,SW,225,9.3,12.4,62,0.00,,,0.00,Rainwise IP-100,2013-06-14 19:23:00,
2013-06-14 12:28:00,64.9,51.0,29.70,SSW,202,7.9,12.1,62,0.00,,,0.00,Rainwise IP-100,2013-06-14 19:28:00,
2013-06-14 12:33:00,64.4,51.0,29.69,SSW,202,7.2,13.5,63,0.00,,,0.00,Rainwise IP-100,2013-06-14 19:33:00,
2013-06-14 12:38:00,64.2,51.0,29.70,WSW,247,5.4,14.2,63,0.00,,,0.00,Rainwise IP-100,2013-06-14 19:38:00,
2013-06-14 12:43:00,64.5,51.0,29.70,SW,225,6.3,12.8,63,0.00,,,0.00,Rainwise IP-100,2013-06-14 19:43:00,
2013-06-14 12:48:00,64.2,51.0,29.70,WSW,247,2.3,13.3,63,0.00,,,0.00,Rainwise IP-100,2013-06-14 19:48:00,
2013-06-14 12:53:00,63.9,51.0,29.70,WSW,247,4.7,13.5,63,0.00,,,0.00,Rainwise IP-100,2013-06-14 19:53:00,
2013-06-14 12:58:00,63.2,50.5,29.70,SSW,202,11.0,13.8,64,0.00,,,0.00,Rainwise IP-100,2013-06-14 19:58:00,
2013-06-14 13:03:00,62.4,50.5,29.70,SW,225,7.2,15.4,65,0.00,,,0.00,Rainwise IP-100,2013-06-14 20:03:00,
2013-06-14 13:08:00,61.8,51.0,29.70,SSW,202,7.0,14.5,67,0.00,,,0.00,Rainwise IP-100,2013-06-14 20:08:00,
2013-06-14 13:13:00,61.7,50.5,29.70,WSW,247,6.3,17.5,67,0.00,,,0.00,Rainwise IP-100,2013-06-14 20:13:00,
2013-06-14 13:18:00,61.7,50.5,29.70,SW,225,8.9,12.8,68,0.00,,,0.00,Rainwise IP-100,2013-06-14 20:18:00,
2013-06-14 13:23:00,61.8,51.0,29.70,SW,225,4.2,14.0,68,0.00,,,0.00,Rainwise IP-100,2013-06-14 20:23:00,
2013-06-14 13:28:00,62.0,51.0,29.69,SSW,202,6.1,13.8,68,0.00,,,0.00,Rainwise IP-100,2013-06-14 20:28:00,
2013-06-14 13:33:00,62.2,51.0,29.69,SW,225,9.8,14.5,68,0.00,,,0.00,Rainwise IP-100,2013-06-14 20:33:00,
2013-06-14 13:38:00,62.4,52.0,29.69,SSW,202,7.2,13.5,68,0.00,,,0.00,Rainwise IP-100,2013-06-14 20:38:00,
2013-06-14 13:43:00,62.3,51.0,29.70,WSW,247,9.3,12.8,67,0.00,,,0.00,Rainwise IP-100,2013-06-14 20:43:00,
2013-06-14 13:48:00,62.2,51.0,29.69,West,270,4.7,14.5,68,0.00,,,0.00,Rainwise IP-100,2013-06-14 20:48:00,
2013-06-14 13:53:00,62.2,51.0,29.69,SW,225,10.3,13.5,68,0.00,,,0.00,Rainwise IP-100,2013-06-14 20:53:00,
2013-06-14 13:58:00,61.9,51.0,29.69,WSW,247,11.9,13.1,68,0.00,,,0.00,Rainwise IP-100,2013-06-14 20:58:00,
2013-06-14 14:03:00,61.6,50.5,29.69,SW,225,11.4,13.3,68,0.00,,,0.00,Rainwise IP-100,2013-06-14 21:03:00,
2013-06-14 14:08:00,61.5,51.0,29.69,SW,225,2.8,14.5,69,0.00,,,0.00,Rainwise IP-100,2013-06-14 21:08:00,
2013-06-14 14:13:00,61.3,51.0,29.69,WSW,247,8.2,13.5,69,0.00,,,0.00,Rainwise IP-100,2013-06-14 21:13:00,
2013-06-14 14:18:00,61.7,51.0,29.68,SSW,202,4.9,13.3,69,0.00,,,0.00,Rainwise IP-100,2013-06-14 21:18:00,
2013-06-14 14:23:00,61.9,52.0,29.68,WSW,247,7.9,13.5,69,0.00,,,0.00,Rainwise IP-100,2013-06-14 21:23:00,
2013-06-14 14:28:00,61.8,52.0,29.68,SW,225,11.0,12.4,69,0.00,,,0.00,Rainwise IP-100,2013-06-14 21:28:00,
2013-06-14 14:33:00,61.8,52.0,29.68,West,270,6.8,14.2,69,0.00,,,0.00,Rainwise IP-100,2013-06-14 21:33:00,
2013-06-14 14:38:00,62.0,52.0,29.68,WSW,247,7.0,13.8,69,0.00,,,0.00,Rainwise IP-100,2013-06-14 21:38:00,
2013-06-14 14:43:00,61.9,52.0,29.67,SW,225,7.2,15.2,69,0.00,,,0.00,Rainwise IP-100,2013-06-14 21:43:00,
2013-06-14 14:48:00,61.4,51.0,29.67,SW,225,11.0,14.2,69,0.00,,,0.00,Rainwise IP-100,2013-06-14 21:48:00,
2013-06-14 14:53:00,61.1,50.5,29.68,SSW,202,8.2,16.3,69,0.00,,,0.00,Rainwise IP-100,2013-06-14 21:53:00,
2013-06-14 14:58:00,60.9,51.0,29.67,SW,225,5.1,16.3,70,0.00,,,0.00,Rainwise IP-100,2013-06-14 21:58:00,
2013-06-14 15:03:00,60.6,51.0,29.67,WSW,247,7.9,19.6,71,0.00,,,0.00,Rainwise IP-100,2013-06-14 22:03:00,
2013-06-14 15:08:00,60.4,51.0,29.68,SSW,202,8.6,18.9,71,0.00,,,0.00,Rainwise IP-100,2013-06-14 22:08:00,
2013-06-14 15:13:00,59.8,50.5,29.67,SSW,202,7.7,19.8,72,0.00,,,0.00,Rainwise IP-100,2013-06-14 22:13:00,
2013-06-14 15:18:00,59.1,50.5,29.68,SW,225,10.5,18.2,73,0.00,,,0.00,Rainwise IP-100,2013-06-14 22:18:00,
2013-06-14 15:23:00,58.9,50.5,29.67,WSW,247,10.3,16.8,73,0.00,,,0.00,Rainwise IP-100,2013-06-14 22:23:00,
2013-06-14 15:28:00,59.3,50.5,29.67,SW,225,6.1,16.3,73,0.00,,,0.00,Rainwise IP-100,2013-06-14 22:28:00,
2013-06-14 15:33:00,59.6,50.5,29.67,WSW,247,7.7,14.5,73,0.00,,,0.00,Rainwise IP-100,2013-06-14 22:33:00,
2013-06-14 15:38:00,59.4,50.5,29.66,WSW,247,8.9,15.2,73,0.00,,,0.00,Rainwise IP-100,2013-06-14 22:38:00,
2013-06-14 15:43:00,59.7,50.5,29.67,SSW,202,12.1,18.7,73,0.00,,,0.00,Rainwise IP-100,2013-06-14 22:43:00,
2013-06-14 15:48:00,59.6,50.5,29.67,WSW,247,11.4,19.6,73,0.00,,,0.00,Rainwise IP-100,2013-06-14 22:48:00,
2013-06-14 15:53:00,59.3,50.5,29.66,SW,225,17.7,17.7,73,0.00,,,0.00,Rainwise IP-100,2013-06-14 22:53:00,
2013-06-14 15:58:00,59.0,50.5,29.66,SSW,202,12.6,18.9,74,0.00,,,0.00,Rainwise IP-100,2013-06-14 22:58:00,
2013-06-14 16:03:00,58.7,50.5,29.66,SW,225,8.9,19.6,74,0.00,,,0.00,Rainwise IP-100,2013-06-14 23:03:00,
2013-06-14 16:08:00,58.3,50.5,29.67,WSW,247,9.1,17.3,75,0.00,,,0.00,Rainwise IP-100,2013-06-14 23:08:00,
2013-06-14 16:13:00,58.1,50.5,29.66,SW,225,12.4,16.3,75,0.00,,,0.00,Rainwise IP-100,2013-06-14 23:13:00,
2013-06-14 16:18:00,58.4,50.5,29.66,West,270,10.3,16.1,76,0.00,,,0.00,Rainwise IP-100,2013-06-14 23:18:00,
2013-06-14 16:23:00,58.5,51.0,29.66,SW,225,5.6,17.3,75,0.00,,,0.00,Rainwise IP-100,2013-06-14 23:23:00,
2013-06-14 16:28:00,58.6,51.0,29.65,SW,225,7.9,16.8,75,0.00,,,0.00,Rainwise IP-100,2013-06-14 23:28:00,
2013-06-14 16:33:00,58.4,50.5,29.66,WSW,247,6.5,16.3,75,0.00,,,0.00,Rainwise IP-100,2013-06-14 23:33:00,
2013-06-14 16:38:00,58.8,51.0,29.65,SSW,202,3.3,15.4,75,0.00,,,0.00,Rainwise IP-100,2013-06-14 23:38:00,
2013-06-14 16:43:00,58.6,51.0,29.65,SSW,202,13.8,18.4,75,0.00,,,0.00,Rainwise IP-100,2013-06-14 23:43:00,
2013-06-14 16:48:00,57.7,50.0,29.65,WSW,247,9.6,18.4,76,0.00,,,0.00,Rainwise IP-100,2013-06-14 23:48:00,
2013-06-14 16:53:00,57.7,50.0,29.65,SW,225,10.0,14.9,76,0.00,,,0.00,Rainwise IP-100,2013-06-14 23:53:00,
2013-06-14 16:58:00,57.7,50.0,29.65,SW,225,5.8,16.6,76,0.00,,,0.00,Rainwise IP-100,2013-06-14 23:58:00,
2013-06-14 17:03:00,57.7,50.0,29.65,SSW,202,13.1,16.1,76,0.00,,,0.00,Rainwise IP-100,2013-06-15 00:03:00,
2013-06-14 17:08:00,57.8,50.5,29.65,SSW,202,9.3,16.3,76,0.00,,,0.00,Rainwise IP-100,2013-06-15 00:08:00,
2013-06-14 17:13:00,58.1,50.5,29.65,SW,225,8.9,17.3,76,0.00,,,0.00,Rainwise IP-100,2013-06-15 00:13:00,
2013-06-14 17:18:00,58.1,50.5,29.65,SSW,202,11.9,14.2,76,0.00,,,0.00,Rainwise IP-100,2013-06-15 00:18:00,
2013-06-14 17:23:00,57.9,50.5,29.64,SSW,202,9.1,16.8,76,0.00,,,0.00,Rainwise IP-100,2013-06-15 00:23:00,
2013-06-14 17:28:00,57.9,50.5,29.64,WSW,247,7.0,14.2,76,0.00,,,0.00,Rainwise IP-100,2013-06-15 00:28:00,
2013-06-14 17:33:00,57.8,50.5,29.64,SSW,202,8.4,16.6,76,0.00,,,0.00,Rainwise IP-100,2013-06-15 00:33:00,
2013-06-14 17:38:00,57.7,50.0,29.63,SW,225,9.8,16.8,76,0.00,,,0.00,Rainwise IP-100,2013-06-15 00:38:00,
2013-06-14 17:43:00,57.4,50.5,29.64,SW,225,4.9,16.3,77,0.00,,,0.00,Rainwise IP-100,2013-06-15 00:43:00,
2013-06-14 17:48:00,57.0,50.0,29.64,SW,225,6.5,15.9,77,0.00,,,0.00,Rainwise IP-100,2013-06-15 00:48:00,
2013-06-14 17:53:00,57.0,50.5,29.64,SW,225,6.8,18.2,78,0.00,,,0.00,Rainwise IP-100,2013-06-15 00:53:00,
2013-06-14 17:58:00,57.1,50.5,29.63,SSW,202,14.9,16.3,78,0.00,,,0.00,Rainwise IP-100,2013-06-15 00:58:00,
2013-06-14 18:03:00,56.9,50.5,29.64,SW,225,10.3,18.4,78,0.00,,,0.00,Rainwise IP-100,2013-06-15 01:03:00,
2013-06-14 18:08:00,56.7,50.0,29.64,SSE,157,4.7,14.5,78,0.00,,,0.00,Rainwise IP-100,2013-06-15 01:08:00,
2013-06-14 18:13:00,56.6,50.0,29.63,SW,225,8.4,16.8,79,0.00,,,0.00,Rainwise IP-100,2013-06-15 01:13:00,
2013-06-14 18:18:00,56.2,50.0,29.64,SW,225,7.0,16.3,79,0.00,,,0.00,Rainwise IP-100,2013-06-15 01:18:00,
2013-06-14 18:23:00,56.2,50.0,29.63,SW,225,8.2,14.2,79,0.00,,,0.00,Rainwise IP-100,2013-06-15 01:23:00,
2013-06-14 18:28:00,56.3,50.0,29.63,SW,225,8.9,16.1,79,0.00,,,0.00,Rainwise IP-100,2013-06-15 01:28:00,
2013-06-14 18:33:00,56.1,50.0,29.63,SW,225,12.8,17.7,79,0.00,,,0.00,Rainwise IP-100,2013-06-15 01:33:00,
2013-06-14 18:38:00,55.9,50.0,29.64,SSW,202,13.3,16.8,80,0.00,,,0.00,Rainwise IP-100,2013-06-15 01:38:00,
2013-06-14 18:43:00,55.6,50.0,29.63,SW,225,7.0,16.1,80,0.00,,,0.00,Rainwise IP-100,2013-06-15 01:43:00,
2013-06-14 18:48:00,55.4,50.0,29.63,SW,225,8.4,16.8,81,0.00,,,0.00,Rainwise IP-100,2013-06-15 01:48:00,
2013-06-14 18:53:00,55.3,50.0,29.63,SW,225,14.7,15.6,81,0.00,,,0.00,Rainwise IP-100,2013-06-15 01:53:00,
2013-06-14 18:58:00,55.3,50.0,29.63,SW,225,9.1,18.9,81,0.00,,,0.00,Rainwise IP-100,2013-06-15 01:58:00,
2013-06-14 19:03:00,55.3,50.0,29.63,SW,225,7.5,15.4,81,0.00,,,0.00,Rainwise IP-100,2013-06-15 02:03:00,
2013-06-14 19:08:00,55.2,50.0,29.63,SW,225,6.5,15.6,82,0.00,,,0.00,Rainwise IP-100,2013-06-15 02:08:00,
2013-06-14 19:13:00,54.9,50.0,29.63,SSW,202,8.4,15.6,82,0.00,,,0.00,Rainwise IP-100,2013-06-15 02:13:00,
2013-06-14 19:18:00,54.5,49.0,29.63,WNW,292,4.0,15.2,82,0.00,,,0.00,Rainwise IP-100,2013-06-15 02:18:00,
2013-06-14 19:23:00,54.2,49.0,29.63,WSW,247,7.7,17.3,83,0.00,,,0.00,Rainwise IP-100,2013-06-15 02:23:00,
2013-06-14 19:28:00,54.1,49.0,29.63,SW,225,6.3,16.8,83,0.00,,,0.00,Rainwise IP-100,2013-06-15 02:28:00,
2013-06-14 19:33:00,54.2,49.0,29.63,SSW,202,5.1,14.5,84,0.00,,,0.00,Rainwise IP-100,2013-06-15 02:33:00,
2013-06-14 19:38:00,54.2,49.0,29.63,SSW,202,14.2,17.0,84,0.00,,,0.00,Rainwise IP-100,2013-06-15 02:38:00,
2013-06-14 19:43:00,54.0,49.0,29.63,WSW,247,7.7,17.0,84,0.00,,,0.00,Rainwise IP-100,2013-06-15 02:43:00,
2013-06-14 19:48:00,53.7,48.0,29.63,SW,225,11.4,15.6,84,0.00,,,0.00,Rainwise IP-100,2013-06-15 02:48:00,
2013-06-14 19:53:00,53.6,49.0,29.63,SW,225,9.8,16.1,85,0.00,,,0.00,Rainwise IP-100,2013-06-15 02:53:00,
2013-06-14 19:58:00,53.4,49.0,29.62,SW,225,11.4,16.1,86,0.00,,,0.00,Rainwise IP-100,2013-06-15 02:58:00,
2013-06-14 20:03:00,53.3,49.0,29.63,WSW,247,8.4,15.9,86,0.00,,,0.00,Rainwise IP-100,2013-06-15 03:03:00,
2013-06-14 20:08:00,53.1,48.0,29.63,WSW,247,7.2,18.2,86,0.00,,,0.00,Rainwise IP-100,2013-06-15 03:08:00,
2013-06-14 20:13:00,52.9,49.0,29.62,WSW,247,7.7,14.5,87,0.00,,,0.00,Rainwise IP-100,2013-06-15 03:13:00,
2013-06-14 20:18:00,52.7,49.0,29.62,SSW,202,8.9,14.9,87,0.00,,,0.00,Rainwise IP-100,2013-06-15 03:18:00,
2013-06-14 20:23:00,52.6,49.0,29.63,SW,225,5.6,16.3,88,0.00,,,0.00,Rainwise IP-100,2013-06-15 03:23:00,
2013-06-14 20:28:00,52.5,50.0,29.62,SW,225,7.5,14.7,89,0.00,,,0.00,Rainwise IP-100,2013-06-15 03:28:00,
2013-06-14 20:33:00,52.4,49.0,29.62,SSW,202,8.9,15.4,89,0.00,,,0.00,Rainwise IP-100,2013-06-15 03:33:00,
2013-06-14 20:38:00,52.3,49.0,29.62,West,270,6.3,12.8,89,0.00,,,0.00,Rainwise IP-100,2013-06-15 03:38:00,
2013-06-14 20:43:00,52.3,49.0,29.63,WSW,247,4.9,15.2,90,0.00,,,0.00,Rainwise IP-100,2013-06-15 03:43:00,
2013-06-14 20:48:00,52.3,49.0,29.62,SSW,202,8.2,13.3,90,0.00,,,0.00,Rainwise IP-100,2013-06-15 03:48:00,
2013-06-14 20:53:00,52.2,49.0,29.62,WSW,247,8.4,14.0,90,0.00,,,0.00,Rainwise IP-100,2013-06-15 03:53:00,
2013-06-14 20:58:00,52.2,49.0,29.63,WSW,247,7.5,13.5,90,0.00,,,0.00,Rainwise IP-100,2013-06-15 03:58:00,
2013-06-14 21:01:00,52.1,49.0,29.62,SW,225,4.0,13.5,90,0.00,,,0.00,Rainwise IP-100,2013-06-15 04:01:00,
2013-06-14 21:06:00,52.1,49.0,29.63,WSW,247,4.7,17.5,90,0.00,,,0.00,Rainwise IP-100,2013-06-15 04:06:00,
2013-06-14 21:11:00,52.1,49.0,29.63,SSW,202,4.9,12.6,91,0.00,,,0.00,Rainwise IP-100,2013-06-15 04:11:00,
2013-06-14 21:16:00,52.0,49.0,29.62,SSW,202,14.2,15.6,91,0.00,,,0.00,Rainwise IP-100,2013-06-15 04:16:00,
2013-06-14 21:21:00,52.0,49.0,29.62,SSW,202,4.0,18.0,91,0.00,,,0.00,Rainwise IP-100,2013-06-15 04:21:00,
2013-06-14 21:26:00,52.0,49.0,29.63,WSW,247,5.6,16.8,91,0.00,,,0.00,Rainwise IP-100,2013-06-15 04:26:00,
2013-06-14 21:31:00,52.0,49.0,29.63,SSW,202,7.9,15.6,91,0.00,,,0.00,Rainwise IP-100,2013-06-15 04:31:00,
2013-06-14 21:36:00,52.0,49.0,29.62,SSW,202,5.6,14.0,91,0.00,,,0.00,Rainwise IP-100,2013-06-15 04:36:00,
2013-06-14 21:41:00,52.0,50.0,29.63,SW,225,9.8,15.4,92,0.00,,,0.00,Rainwise IP-100,2013-06-15 04:41:00,
2013-06-14 21:46:00,51.9,50.0,29.63,SW,225,7.0,16.6,92,0.00,,,0.00,Rainwise IP-100,2013-06-15 04:46:00,
2013-06-14 21:51:00,51.8,50.0,29.63,SW,225,11.0,15.2,92,0.00,,,0.00,Rainwise IP-100,2013-06-15 04:51:00,
2013-06-14 21:56:00,51.8,50.0,29.64,SW,225,9.6,15.2,92,0.00,,,0.00,Rainwise IP-100,2013-06-15 04:56:00,
2013-06-14 22:01:00,51.8,50.0,29.63,SW,225,8.4,16.8,92,0.00,,,0.00,Rainwise IP-100,2013-06-15 05:01:00,
2013-06-14 22:06:00,51.7,50.0,29.63,SW,225,9.3,15.6,92,0.00,,,0.00,Rainwise IP-100,2013-06-15 05:06:00,
2013-06-14 22:11:00,51.7,50.0,29.63,SSW,202,5.4,13.8,92,0.00,,,0.00,Rainwise IP-100,2013-06-15 05:11:00,
2013-06-14 22:16:00,51.8,50.0,29.63,WSW,247,7.9,14.7,92,0.00,,,0.00,Rainwise IP-100,2013-06-15 05:16:00,
2013-06-14 22:21:00,51.7,50.0,29.63,SSW,202,5.4,16.1,92,0.00,,,0.00,Rainwise IP-100,2013-06-15 05:21:00,
2013-06-14 22:26:00,51.6,50.0,29.63,SW,225,9.8,15.4,93,0.00,,,0.00,Rainwise IP-100,2013-06-15 05:26:00,
2013-06-14 22:31:00,51.6,50.0,29.63,SW,225,6.3,14.5,93,0.00,,,0.00,Rainwise IP-100,2013-06-15 05:31:00,
2013-06-14 22:36:00,51.5,50.0,29.63,SSW,202,13.5,15.4,93,0.00,,,0.00,Rainwise IP-100,2013-06-15 05:36:00,
2013-06-14 22:41:00,51.6,50.0,29.63,SW,225,8.4,14.0,93,0.00,,,0.00,Rainwise IP-100,2013-06-15 05:41:00,
2013-06-14 22:46:00,51.7,50.0,29.63,SW,225,7.5,13.8,93,0.00,,,0.00,Rainwise IP-100,2013-06-15 05:46:00,
2013-06-14 22:51:00,51.7,50.0,29.63,SSW,202,11.2,15.9,93,0.00,,,0.00,Rainwise IP-100,2013-06-15 05:51:00,
2013-06-14 22:56:00,51.7,50.0,29.63,SW,225,6.1,16.1,93,0.00,,,0.00,Rainwise IP-100,2013-06-15 05:56:00,
2013-06-14 23:00:00,51.6,50.0,29.63,SW,225,6.1,14.9,93,0.00,,,0.00,Rainwise IP-100,2013-06-15 06:00:00,
2013-06-14 23:05:00,51.5,50.0,29.63,WSW,247,5.8,16.1,93,0.00,,,0.00,Rainwise IP-100,2013-06-15 06:05:00,
2013-06-14 23:10:00,51.5,50.0,29.63,SSW,202,7.5,14.0,93,0.00,,,0.00,Rainwise IP-100,2013-06-15 06:10:00,
2013-06-14 23:15:00,51.6,50.0,29.63,SSW,202,10.7,11.7,93,0.00,,,0.00,Rainwise IP-100,2013-06-15 06:15:00,
2013-06-14 23:20:00,51.6,50.0,29.63,SW,225,12.6,14.5,93,0.00,,,0.00,Rainwise IP-100,2013-06-15 06:20:00,
2013-06-14 23:24:00,51.6,50.0,29.62,WSW,247,7.5,15.6,93,0.00,,,0.00,Rainwise IP-100,2013-06-15 06:24:00,
2013-06-14 23:29:00,51.4,49.0,29.63,WSW,247,10.5,12.8,93,0.00,,,0.00,Rainwise IP-100,2013-06-15 06:29:00,
2013-06-14 23:34:00,51.4,49.0,29.63,SW,225,6.3,16.1,93,0.00,,,0.00,Rainwise IP-100,2013-06-15 06:34:00,
2013-06-14 23:39:00,51.4,49.0,29.63,SW,225,11.4,14.5,93,0.00,,,0.00,Rainwise IP-100,2013-06-15 06:39:00,
2013-06-14 23:44:00,51.5,50.0,29.63,SSW,202,8.6,11.7,93,0.00,,,0.00,Rainwise IP-100,2013-06-15 06:44:00,
2013-06-14 23:49:00,51.5,50.0,29.62,SW,225,12.1,13.5,93,0.00,,,0.00,Rainwise IP-100,2013-06-15 06:49:00,
2013-06-14 23:54:00,51.4,49.0,29.62,SW,225,8.6,14.9,93,0.00,,,0.00,Rainwise IP-100,2013-06-15 06:54:00,
2013-06-14 23:59:00,51.4,49.0,29.62,WSW,247,7.2,14.2,93,0.00,,,0.00,Rainwise IP-100,2013-06-15 06:59:00,